Погода в Черткове

Россия / Владимирская область     55°55′57″N   42°00′58″E
темп.,
°C
ветер,
м/с
пор.,
м/с
влажн.,
%
обл.,
%
осадки,
мм/ч
давл.,
гПа
погр.,
м
6 марта, сб
сб600:00−12сз23926 0.0 101350
03:00−14з23903 0.0 101526
06:00−14з23920 0.0 101531
09:00−11з24920 0.0 1016186
12:00−7зсз248380 0.0 1015645
15:00−6зсз347690 0.2 1014902
18:00−10зсз339062 0.1 101451
21:00−13з239330 0.1 101332
7 марта, вс
вс700:00−13зюз23940 0.0 101236
03:00−14ююз349718 0.0 101080
06:00−13ююз499375 0.0 1007219
09:00−9ю7138488 0.0 1003652
12:00−7ююз81391100 0.4 998936
15:00−5ююз71393100 1.7 9941039
18:00−4ююз61395100 1.1 991794
21:00−7з41280100 2.2 992899
8 марта, пн
пн800:00−10зюз513845 0.0 993416
03:00−11зюз5128817 0.0 994335
06:00−12зюз4109571 0.0 993237
09:00−9з5117765 0.0 994509
12:00−7зсз5985100 0.1 996691
15:00−7зсз6883100 0.1 999951
18:00−9сз51090100 0.3 1003620
21:00−12сз389493 0.3 1006255
9 марта, вт
вт900:00−13сз369596 0.1 1009205
03:00−16сз359790 0.1 1011140
06:00−19сз359774 0.0 1013113
09:00−17ссз369143 0.0 1016285
12:00−13сз348065 0.0 1016613
15:00−12сз458083 0.0 1017790
18:00−16ссз3591100 0.0 1018135
21:00−20ссз359689 0.1 1020117
10 марта, ср
ср1000:00−22ссз349835 0.0 102286
03:00−23ссз349826 0.0 102382
06:00−25ссз239813 0.0 102465
09:00−22с239113 0.0 1025249
12:00−17с227645 0.0 1025425
15:00−14с237225 0.0 1025612
18:00−18св128981 0.0 102420
21:00−21всв119745 0.0 102620